Time,TemperatureF,DewpointF,PressureIn,WindDirection,WindDirectionDegrees,WindSpeedMPH,WindSpeedGustMPH,Humidity,HourlyPrecipIn,Conditions,Clouds,dailyrainin,SoftwareType,DateUTC
2013-09-05 00:00:00,66.6,59.2,18.34,NE,41,0.0,0.0,77,0.00,,,0.03,Wunderground v.1.15,2013-09-05 04:00:00,
2013-09-05 00:05:00,66.6,59.2,18.34,NE,46,1.0,1.0,77,0.00,,,0.00,Wunderground v.1.15,2013-09-05 04:05:00,
2013-09-05 00:10:00,66.6,59.2,18.34,ENE,67,1.0,1.0,77,0.00,,,0.00,Wunderground v.1.15,2013-09-05 04:10:00,
2013-09-05 00:20:00,66.5,59.4,18.34,ENE,72,1.0,1.0,78,0.00,,,0.00,Wunderground v.1.15,2013-09-05 04:20:00,
2013-09-05 00:25:00,66.4,59.3,18.34,ENE,74,1.0,1.0,78,0.00,,,0.00,Wunderground v.1.15,2013-09-05 04:25:00,
2013-09-05 00:30:00,66.4,59.7,18.34,East,95,0.0,0.0,79,0.00,,,0.00,Wunderground v.1.15,2013-09-05 04:30:00,
2013-09-05 00:35:00,66.3,59.6,18.34,East,95,0.0,8.0,79,0.00,,,0.00,Wunderground v.1.15,2013-09-05 04:35:00,
2013-09-05 00:40:00,66.3,59.9,18.34,East,98,0.0,8.0,80,0.00,,,0.00,Wunderground v.1.15,2013-09-05 04:40:00,
2013-09-05 00:45:00,66.2,59.8,18.34,ESE,107,0.0,8.0,80,0.00,,,0.00,Wunderground v.1.15,2013-09-05 04:45:00,
2013-09-05 00:50:00,66.1,60.1,18.34,SSW,198,0.0,8.0,81,0.00,,,0.01,Wunderground v.1.15,2013-09-05 04:50:00,
2013-09-05 00:55:00,66.0,60.3,18.34,South,188,0.0,8.0,82,0.00,,,0.01,Wunderground v.1.15,2013-09-05 04:55:00,
2013-09-05 01:00:00,65.8,60.5,18.34,SSW,211,1.0,1.0,83,0.00,,,0.01,Wunderground v.1.15,2013-09-05 05:00:00,
2013-09-05 01:10:00,65.4,60.4,18.34,SSE,160,0.0,0.0,84,0.00,,,0.01,Wunderground v.1.15,2013-09-05 05:10:00,
2013-09-05 01:15:00,65.2,60.6,18.34,South,191,0.0,0.0,85,0.00,,,0.01,Wunderground v.1.15,2013-09-05 05:15:00,
2013-09-05 01:20:00,65.0,60.7,18.34,SW,220,0.0,0.0,86,0.00,,,0.01,Wunderground v.1.15,2013-09-05 05:20:00,
2013-09-05 01:25:00,64.8,60.5,18.34,SW,219,0.0,3.0,86,0.00,,,0.01,Wunderground v.1.15,2013-09-05 05:25:00,
2013-09-05 01:30:00,64.7,60.7,18.34,South,178,0.0,0.0,87,0.00,,,0.01,Wunderground v.1.15,2013-09-05 05:30:00,
2013-09-05 01:35:00,64.5,60.9,18.34,South,181,0.0,0.0,88,0.00,,,0.01,Wunderground v.1.15,2013-09-05 05:35:00,
2013-09-05 01:40:00,64.4,60.8,18.34,South,177,0.0,0.0,88,0.00,,,0.01,Wunderground v.1.15,2013-09-05 05:40:00,
2013-09-05 01:45:00,64.3,60.7,18.34,South,177,0.0,0.0,88,0.00,,,0.01,Wunderground v.1.15,2013-09-05 05:45:00,
2013-09-05 01:55:00,64.1,60.8,18.34,SSW,205,0.0,0.0,89,0.00,,,0.01,Wunderground v.1.15,2013-09-05 05:55:00,
2013-09-05 02:00:00,64.1,61.1,18.34,SSW,203,0.0,0.0,90,0.00,,,0.01,Wunderground v.1.15,2013-09-05 06:00:00,
2013-09-05 02:05:00,64.0,61.0,18.34,South,176,0.0,0.0,90,0.00,,,0.01,Wunderground v.1.15,2013-09-05 06:05:00,
2013-09-05 02:10:00,64.0,61.3,18.34,South,179,1.0,6.0,91,0.00,,,0.01,Wunderground v.1.15,2013-09-05 06:10:00,
2013-09-05 02:15:00,64.0,61.3,18.34,South,178,1.0,6.0,91,0.00,,,0.01,Wunderground v.1.15,2013-09-05 06:15:00,
2013-09-05 02:20:00,63.8,61.1,18.34,South,176,2.0,2.0,91,0.00,,,0.01,Wunderground v.1.15,2013-09-05 06:20:00,
2013-09-05 02:30:00,63.6,60.9,18.34,SSW,211,2.0,2.0,91,0.00,,,0.01,Wunderground v.1.15,2013-09-05 06:30:00,
2013-09-05 02:35:00,63.3,60.6,18.34,SSW,213,1.0,5.0,91,0.00,,,0.01,Wunderground v.1.15,2013-09-05 06:35:00,
2013-09-05 02:40:00,63.0,60.6,18.34,South,190,2.0,2.0,92,0.00,,,0.01,Wunderground v.1.15,2013-09-05 06:40:00,
2013-09-05 02:45:00,62.8,60.4,18.34,SW,222,2.0,5.0,92,0.00,,,0.01,Wunderground v.1.15,2013-09-05 06:45:00,
2013-09-05 02:50:00,62.7,60.3,18.34,SSW,206,1.0,1.0,92,0.00,,,0.01,Wunderground v.1.15,2013-09-05 06:50:00,
2013-09-05 03:00:00,62.1,59.4,18.34,SSW,195,2.0,2.0,91,0.00,,,0.01,Wunderground v.1.15,2013-09-05 07:00:00,
2013-09-05 03:10:00,61.7,59.0,18.34,South,184,3.0,3.0,91,0.00,,,0.02,Wunderground v.1.15,2013-09-05 07:10:00,
2013-09-05 03:15:00,61.4,58.4,18.34,SSW,201,3.0,6.0,90,0.00,,,0.02,Wunderground v.1.15,2013-09-05 07:15:00,
2013-09-05 03:20:00,61.2,58.2,18.34,SW,224,3.0,6.0,90,0.00,,,0.02,Wunderground v.1.15,2013-09-05 07:20:00,
2013-09-05 03:30:00,60.7,55.8,18.34,SW,221,4.0,4.0,84,0.00,,,0.02,Wunderground v.1.15,2013-09-05 07:30:00,
2013-09-05 03:35:00,60.8,55.6,18.34,SW,214,3.0,4.0,83,0.00,,,0.02,Wunderground v.1.15,2013-09-05 07:35:00,
2013-09-05 03:40:00,60.8,55.9,18.34,SSW,205,1.0,1.0,84,0.00,,,0.02,Wunderground v.1.15,2013-09-05 07:40:00,
2013-09-05 03:45:00,60.7,55.5,18.34,SSW,213,2.0,4.0,83,0.00,,,0.02,Wunderground v.1.15,2013-09-05 07:45:00,
2013-09-05 03:50:00,60.6,55.4,18.34,SSW,213,3.0,3.0,83,0.00,,,0.02,Wunderground v.1.15,2013-09-05 07:50:00,
2013-09-05 03:55:00,60.4,55.2,18.34,SSW,207,3.0,3.0,83,0.00,,,0.02,Wunderground v.1.15,2013-09-05 07:55:00,
2013-09-05 04:00:00,60.2,55.0,18.34,South,187,1.0,1.0,83,0.00,,,0.02,Wunderground v.1.15,2013-09-05 08:00:00,
2013-09-05 04:10:00,59.8,55.0,18.34,South,180,1.0,1.0,84,0.00,,,0.02,Wunderground v.1.15,2013-09-05 08:10:00,
2013-09-05 04:15:00,59.6,54.8,18.34,South,182,1.0,1.0,84,0.00,,,0.02,Wunderground v.1.15,2013-09-05 08:15:00,
2013-09-05 04:20:00,59.5,55.0,18.34,SSW,195,1.0,1.0,85,0.00,,,0.02,Wunderground v.1.15,2013-09-05 08:20:00,
2013-09-05 04:25:00,59.3,54.8,18.34,SSW,196,0.0,1.0,85,0.00,,,0.02,Wunderground v.1.15,2013-09-05 08:25:00,
2013-09-05 04:35:00,59.0,54.5,18.34,South,179,0.0,12.0,85,0.00,,,0.02,Wunderground v.1.15,2013-09-05 08:35:00,
2013-09-05 04:40:00,58.9,54.7,18.34,South,180,0.0,12.0,86,0.00,,,0.02,Wunderground v.1.15,2013-09-05 08:40:00,
2013-09-05 04:45:00,58.7,54.5,18.34,South,186,0.0,12.0,86,0.00,,,0.02,Wunderground v.1.15,2013-09-05 08:45:00,
2013-09-05 04:50:00,58.5,54.3,18.34,South,170,0.0,12.0,86,0.00,,,0.02,Wunderground v.1.15,2013-09-05 08:50:00,
2013-09-05 04:55:00,58.4,54.5,18.34,South,183,0.0,12.0,87,0.00,,,0.02,Wunderground v.1.15,2013-09-05 08:55:00,
2013-09-05 05:00:00,58.1,54.2,18.34,South,189,0.0,0.0,87,0.00,,,0.02,Wunderground v.1.15,2013-09-05 09:00:00,
2013-09-05 05:10:00,57.8,54.3,18.34,South,190,0.0,0.0,88,0.00,,,0.02,Wunderground v.1.15,2013-09-05 09:10:00,
2013-09-05 05:15:00,57.7,54.2,18.34,South,190,0.0,0.0,88,0.00,,,0.02,Wunderground v.1.15,2013-09-05 09:15:00,
2013-09-05 05:20:00,57.4,54.2,18.34,South,190,0.0,0.0,89,0.00,,,0.02,Wunderground v.1.15,2013-09-05 09:20:00,
2013-09-05 05:25:00,57.2,54.0,18.34,South,190,0.0,0.0,89,0.00,,,0.02,Wunderground v.1.15,2013-09-05 09:25:00,
2013-09-05 05:35:00,57.1,54.2,18.34,South,190,0.0,0.0,90,0.00,,,0.02,Wunderground v.1.15,2013-09-05 09:35:00,
2013-09-05 05:40:00,56.9,54.0,18.34,SSW,210,0.0,0.0,90,0.00,,,0.02,Wunderground v.1.15,2013-09-05 09:40:00,
2013-09-05 05:45:00,56.9,54.3,18.34,South,178,1.0,1.0,91,0.00,,,0.02,Wunderground v.1.15,2013-09-05 09:45:00,
2013-09-05 05:50:00,57.0,54.7,18.34,SSW,193,2.0,2.0,92,0.00,,,0.02,Wunderground v.1.15,2013-09-05 09:50:00,
2013-09-05 06:00:00,56.9,54.6,18.34,South,189,1.0,3.0,92,0.00,,,0.03,Wunderground v.1.15,2013-09-05 10:00:00,
2013-09-05 06:10:00,56.9,54.6,18.34,SSW,199,0.0,0.0,92,0.00,,,0.03,Wunderground v.1.15,2013-09-05 10:10:00,
2013-09-05 06:15:00,56.8,54.5,18.34,South,172,1.0,1.0,92,0.00,,,0.03,Wunderground v.1.15,2013-09-05 10:15:00,
2013-09-05 06:20:00,56.8,54.5,18.34,South,176,1.0,1.0,92,0.00,,,0.03,Wunderground v.1.15,2013-09-05 10:20:00,
2013-09-05 06:25:00,56.6,54.3,18.34,South,185,0.0,1.0,92,0.00,,,0.03,Wunderground v.1.15,2013-09-05 10:25:00,
2013-09-05 06:30:00,56.4,54.1,18.34,SSW,192,0.0,0.0,92,0.00,,,0.03,Wunderground v.1.15,2013-09-05 10:30:00,
2013-09-05 06:35:00,55.5,52.6,18.34,West,264,2.0,5.0,90,0.00,,,0.03,Wunderground v.1.15,2013-09-05 10:35:00,
2013-09-05 06:45:00,55.2,51.4,18.34,West,263,2.0,3.0,87,0.00,,,0.03,Wunderground v.1.15,2013-09-05 10:45:00,
2013-09-05 06:50:00,55.2,51.4,18.34,West,264,1.0,1.0,87,0.00,,,0.03,Wunderground v.1.15,2013-09-05 10:50:00,
2013-09-05 06:55:00,55.1,51.3,18.34,West,261,1.0,1.0,87,0.00,,,0.03,Wunderground v.1.15,2013-09-05 10:55:00,
2013-09-05 07:00:00,55.1,51.0,18.34,West,261,1.0,1.0,86,0.00,,,0.03,Wunderground v.1.15,2013-09-05 11:00:00,
2013-09-05 07:10:00,55.2,51.1,18.34,West,261,0.0,0.0,86,0.00,,,0.03,Wunderground v.1.15,2013-09-05 11:10:00,
2013-09-05 07:20:00,55.2,50.8,18.34,West,263,0.0,0.0,85,0.00,,,0.03,Wunderground v.1.15,2013-09-05 11:20:00,
2013-09-05 07:30:00,55.1,50.4,18.34,West,263,0.0,0.0,84,0.00,,,0.03,Wunderground v.1.15,2013-09-05 11:30:00,
2013-09-05 07:35:00,55.1,50.4,18.34,West,263,0.0,2.0,84,0.00,,,0.03,Wunderground v.1.15,2013-09-05 11:35:00,
2013-09-05 07:40:00,55.1,50.4,18.34,West,263,0.0,7.0,84,0.00,,,0.03,Wunderground v.1.15,2013-09-05 11:40:00,
2013-09-05 07:50:00,55.1,50.7,18.34,West,263,0.0,7.0,85,0.00,,,0.03,Wunderground v.1.15,2013-09-05 11:50:00,
2013-09-05 07:55:00,55.2,50.8,18.34,West,263,0.0,7.0,85,0.00,,,0.03,Wunderground v.1.15,2013-09-05 11:55:00,
2013-09-05 08:00:00,55.2,50.4,18.34,West,263,0.0,0.0,84,0.00,,,0.03,Wunderground v.1.15,2013-09-05 12:00:00,
2013-09-05 08:10:00,55.3,50.5,18.34,West,263,0.0,0.0,84,0.00,,,0.03,Wunderground v.1.15,2013-09-05 12:10:00,
2013-09-05 08:15:00,55.4,50.6,18.34,West,263,0.0,0.0,84,0.00,,,0.03,Wunderground v.1.15,2013-09-05 12:15:00,
2013-09-05 08:25:00,55.6,50.2,18.34,West,263,0.0,0.0,82,0.00,,,0.03,Wunderground v.1.15,2013-09-05 12:25:00,
2013-09-05 08:30:00,55.7,50.3,18.34,West,263,0.0,0.0,82,0.00,,,0.03,Wunderground v.1.15,2013-09-05 12:30:00,
2013-09-05 08:35:00,55.9,50.5,18.34,West,263,0.0,4.0,82,0.00,,,0.03,Wunderground v.1.15,2013-09-05 12:35:00,
2013-09-05 08:40:00,56.0,50.3,18.34,West,263,0.0,4.0,81,0.00,,,0.03,Wunderground v.1.15,2013-09-05 12:40:00,
2013-09-05 08:45:00,56.2,50.4,18.34,West,263,0.0,4.0,81,0.00,,,0.03,Wunderground v.1.15,2013-09-05 12:45:00,
2013-09-05 08:50:00,56.4,50.6,18.34,West,263,0.0,4.0,81,0.00,,,0.03,Wunderground v.1.15,2013-09-05 12:50:00,
2013-09-05 08:55:00,56.6,50.5,18.34,West,263,0.0,4.0,80,0.00,,,0.03,Wunderground v.1.15,2013-09-05 12:55:00,
2013-09-05 09:00:00,56.7,50.3,18.34,WSW,256,0.0,0.0,79,0.00,,,0.03,Wunderground v.1.15,2013-09-05 13:00:00,
2013-09-05 09:10:00,57.1,50.3,18.34,WSW,254,0.0,0.0,78,0.00,,,0.03,Wunderground v.1.15,2013-09-05 13:10:00,
2013-09-05 09:15:00,57.3,50.1,18.34,SW,236,0.0,0.0,77,0.00,,,0.03,Wunderground v.1.15,2013-09-05 13:15:00,
2013-09-05 09:20:00,57.6,50.4,18.34,SW,236,0.0,0.0,77,0.00,,,0.03,Wunderground v.1.15,2013-09-05 13:20:00,
2013-09-05 09:25:00,57.8,50.3,18.34,WSW,257,0.0,0.0,76,0.00,,,0.03,Wunderground v.1.15,2013-09-05 13:25:00,
2013-09-05 09:30:00,57.7,50.2,18.34,West,264,1.0,1.0,76,0.00,,,0.03,Wunderground v.1.15,2013-09-05 13:30:00,
2013-09-05 09:35:00,57.9,50.4,18.34,South,181,1.0,1.0,76,0.00,,,0.03,Wunderground v.1.15,2013-09-05 13:35:00,
2013-09-05 09:40:00,58.1,50.6,18.34,WSW,258,1.0,1.0,76,0.00,,,0.03,Wunderground v.1.15,2013-09-05 13:40:00,
2013-09-05 09:45:00,58.4,50.9,18.34,South,176,1.0,4.0,76,0.00,,,0.03,Wunderground v.1.15,2013-09-05 13:45:00,
2013-09-05 09:50:00,58.6,50.7,18.34,SSW,197,1.0,1.0,75,0.00,,,0.03,Wunderground v.1.15,2013-09-05 13:50:00,
2013-09-05 09:55:00,59.2,51.3,18.34,South,186,1.0,1.0,75,0.00,,,0.03,Wunderground v.1.15,2013-09-05 13:55:00,
2013-09-05 10:00:00,59.5,51.2,18.34,WSW,252,1.0,4.0,74,0.00,,,0.03,Wunderground v.1.15,2013-09-05 14:00:00,
2013-09-05 10:10:00,59.7,50.7,18.34,South,179,2.0,4.0,72,0.00,,,0.04,Wunderground v.1.15,2013-09-05 14:10:00,
2013-09-05 10:15:00,60.0,50.9,18.34,WSW,243,1.0,4.0,72,0.00,,,0.04,Wunderground v.1.15,2013-09-05 14:15:00,
2013-09-05 10:20:00,60.2,51.1,18.34,South,189,1.0,1.0,72,0.00,,,0.04,Wunderground v.1.15,2013-09-05 14:20:00,
2013-09-05 10:30:00,61.2,51.3,18.34,SSW,207,2.0,2.0,70,0.00,,,0.04,Wunderground v.1.15,2013-09-05 14:30:00,
2013-09-05 10:35:00,61.5,51.2,18.34,SSW,193,1.0,2.0,69,0.00,,,0.04,Wunderground v.1.15,2013-09-05 14:35:00,
2013-09-05 10:40:00,61.5,51.6,18.34,SSW,199,1.0,1.0,70,0.00,,,0.04,Wunderground v.1.15,2013-09-05 14:40:00,
2013-09-05 10:45:00,61.4,50.7,18.34,SSW,213,1.0,1.0,68,0.00,,,0.04,Wunderground v.1.15,2013-09-05 14:45:00,
2013-09-05 10:50:00,61.4,51.9,18.34,South,176,1.0,1.0,71,0.00,,,0.04,Wunderground v.1.15,2013-09-05 14:50:00,
2013-09-05 11:00:00,62.2,51.9,18.34,SW,218,1.0,3.0,69,0.00,,,0.04,Wunderground v.1.15,2013-09-05 15:00:00,
2013-09-05 11:10:00,62.4,50.9,18.34,WSW,255,2.0,2.0,66,0.00,,,0.04,Wunderground v.1.15,2013-09-05 15:10:00,
2013-09-05 11:15:00,62.3,51.2,18.34,WSW,237,2.0,2.0,67,0.00,,,0.04,Wunderground v.1.15,2013-09-05 15:15:00,
2013-09-05 11:20:00,62.6,51.9,18.34,SW,228,1.0,2.0,68,0.00,,,0.04,Wunderground v.1.15,2013-09-05 15:20:00,
2013-09-05 11:25:00,62.8,51.7,18.34,SSW,195,1.0,2.0,67,0.00,,,0.04,Wunderground v.1.15,2013-09-05 15:25:00,
2013-09-05 11:35:00,62.9,51.8,18.34,South,186,1.0,11.0,67,0.00,,,0.04,Wunderground v.1.15,2013-09-05 15:35:00,
2013-09-05 11:40:00,63.2,52.5,18.34,WSW,238,1.0,1.0,68,0.00,,,0.04,Wunderground v.1.15,2013-09-05 15:40:00,
2013-09-05 11:45:00,62.9,50.5,18.34,WSW,246,1.0,11.0,64,0.00,,,0.04,Wunderground v.1.15,2013-09-05 15:45:00,
2013-09-05 11:55:00,62.9,50.5,18.34,West,259,2.0,11.0,64,0.00,,,0.04,Wunderground v.1.15,2013-09-05 15:55:00,
2013-09-05 12:00:00,62.4,50.5,18.34,South,177,2.0,2.0,65,0.00,,,0.04,Wunderground v.1.15,2013-09-05 16:00:00,
2013-09-05 12:10:00,63.2,50.8,18.34,East,90,2.0,2.0,64,0.00,,,0.04,Wunderground v.1.15,2013-09-05 16:10:00,
2013-09-05 12:15:00,63.8,51.4,18.34,SW,220,3.0,3.0,64,0.00,,,0.04,Wunderground v.1.15,2013-09-05 16:15:00,
2013-09-05 12:20:00,64.2,51.8,18.34,South,170,2.0,5.0,64,0.00,,,0.04,Wunderground v.1.15,2013-09-05 16:20:00,
2013-09-05 12:25:00,64.1,51.2,18.34,WSW,249,1.0,5.0,63,0.00,,,0.04,Wunderground v.1.15,2013-09-05 16:25:00,
2013-09-05 12:30:00,63.4,49.7,18.34,South,178,2.0,6.0,61,0.00,,,0.04,Wunderground v.1.15,2013-09-05 16:30:00,
2013-09-05 12:40:00,64.0,50.3,18.34,SSW,192,3.0,6.0,61,0.00,,,0.04,Wunderground v.1.15,2013-09-05 16:40:00,
2013-09-05 12:50:00,64.2,49.1,18.34,South,174,3.0,10.0,58,0.00,,,0.04,Wunderground v.1.15,2013-09-05 16:50:00,
2013-09-05 12:55:00,64.1,49.0,18.34,SSW,209,5.0,10.0,58,0.00,,,0.04,Wunderground v.1.15,2013-09-05 16:55:00,
2013-09-05 13:00:00,64.2,50.0,18.34,SSW,197,5.0,6.0,60,0.00,,,0.04,Wunderground v.1.15,2013-09-05 17:00:00,
2013-09-05 13:10:00,64.8,49.7,18.34,South,186,3.0,10.0,58,0.00,,,0.04,Wunderground v.1.15,2013-09-05 17:10:00,
2013-09-05 13:15:00,64.2,48.6,18.34,SSW,211,4.0,10.0,57,0.00,,,0.04,Wunderground v.1.15,2013-09-05 17:15:00,
2013-09-05 13:20:00,64.1,49.5,18.34,SSW,203,5.0,5.0,59,0.00,,,0.04,Wunderground v.1.15,2013-09-05 17:20:00,
2013-09-05 13:25:00,64.3,50.1,18.34,SSE,161,4.0,5.0,60,0.00,,,0.04,Wunderground v.1.15,2013-09-05 17:25:00,
2013-09-05 13:30:00,64.4,50.2,18.34,SSE,164,3.0,6.0,60,0.00,,,0.04,Wunderground v.1.15,2013-09-05 17:30:00,
2013-09-05 13:35:00,63.6,49.9,18.34,SW,232,3.0,6.0,61,0.00,,,0.04,Wunderground v.1.15,2013-09-05 17:35:00,
2013-09-05 13:45:00,63.2,50.4,18.34,SSW,213,4.0,11.0,63,0.00,,,0.04,Wunderground v.1.15,2013-09-05 17:45:00,
2013-09-05 13:50:00,63.4,51.0,18.34,SW,218,2.0,2.0,64,0.00,,,0.04,Wunderground v.1.15,2013-09-05 17:50:00,
2013-09-05 13:55:00,64.1,50.4,18.34,SSE,167,3.0,4.0,61,0.00,,,0.04,Wunderground v.1.15,2013-09-05 17:55:00,
2013-09-05 14:00:00,64.2,50.0,18.34,South,184,5.0,5.0,60,0.00,,,0.04,Wunderground v.1.15,2013-09-05 18:00:00,
2013-09-05 14:10:00,63.5,49.4,18.34,SSE,167,4.0,4.0,60,0.00,,,0.04,Wunderground v.1.15,2013-09-05 18:10:00,
2013-09-05 14:15:00,64.0,49.8,18.34,SSE,166,4.0,5.0,60,0.00,,,0.04,Wunderground v.1.15,2013-09-05 18:15:00,
2013-09-05 14:20:00,63.5,48.9,18.34,South,177,5.0,5.0,59,0.00,,,0.04,Wunderground v.1.15,2013-09-05 18:20:00,
2013-09-05 14:25:00,63.4,49.7,18.34,SW,217,4.0,5.0,61,0.00,,,0.04,Wunderground v.1.15,2013-09-05 18:25:00,
2013-09-05 14:30:00,64.0,48.9,18.34,SW,228,3.0,3.0,58,0.00,,,0.04,Wunderground v.1.15,2013-09-05 18:30:00,
2013-09-05 14:35:00,63.6,49.0,18.34,South,190,5.0,5.0,59,0.00,,,0.04,Wunderground v.1.15,2013-09-05 18:35:00,
2013-09-05 14:40:00,64.3,50.6,18.34,SW,214,4.0,4.0,61,0.00,,,0.04,Wunderground v.1.15,2013-09-05 18:40:00,
2013-09-05 14:50:00,63.8,49.6,18.34,South,181,6.0,6.0,60,0.00,,,0.04,Wunderground v.1.15,2013-09-05 18:50:00,
2013-09-05 14:55:00,63.6,49.9,18.34,South,180,4.0,13.0,61,0.00,,,0.04,Wunderground v.1.15,2013-09-05 18:55:00,
2013-09-05 15:00:00,63.5,50.2,18.34,South,176,3.0,9.0,62,0.00,,,0.04,Wunderground v.1.15,2013-09-05 19:00:00,
2013-09-05 15:10:00,62.7,49.5,18.34,WSW,255,5.0,8.0,62,0.00,,,0.05,Wunderground v.1.15,2013-09-05 19:10:00,
2013-09-05 15:20:00,62.2,48.6,18.34,SSE,167,5.0,5.0,61,0.00,,,0.05,Wunderground v.1.15,2013-09-05 19:20:00,
2013-09-05 15:25:00,61.6,48.0,18.34,SSE,168,5.0,5.0,61,0.00,,,0.05,Wunderground v.1.15,2013-09-05 19:25:00,
2013-09-05 15:30:00,61.6,48.4,18.34,SSW,204,4.0,4.0,62,0.00,,,0.05,Wunderground v.1.15,2013-09-05 19:30:00,
2013-09-05 15:40:00,62.4,49.6,18.34,SSW,193,4.0,15.0,63,0.00,,,0.05,Wunderground v.1.15,2013-09-05 19:40:00,
2013-09-05 15:45:00,62.7,48.6,18.34,South,187,4.0,15.0,60,0.00,,,0.05,Wunderground v.1.15,2013-09-05 19:45:00,
2013-09-05 15:50:00,62.2,47.7,18.34,SSW,197,5.0,5.0,59,0.00,,,0.05,Wunderground v.1.15,2013-09-05 19:50:00,
2013-09-05 15:55:00,61.6,47.6,18.34,South,188,5.0,15.0,60,0.00,,,0.05,Wunderground v.1.15,2013-09-05 19:55:00,
2013-09-05 16:00:00,62.1,48.5,18.34,SSW,211,4.0,8.0,61,0.00,,,0.05,Wunderground v.1.15,2013-09-05 20:00:00,
2013-09-05 16:10:00,62.4,48.8,18.34,South,185,3.0,12.0,61,0.00,,,0.05,Wunderground v.1.15,2013-09-05 20:10:00,
2013-09-05 16:20:00,61.8,47.8,18.34,SSW,210,5.0,5.0,60,0.00,,,0.05,Wunderground v.1.15,2013-09-05 20:20:00,
2013-09-05 16:25:00,61.8,47.8,18.34,SSW,201,4.0,5.0,60,0.00,,,0.05,Wunderground v.1.15,2013-09-05 20:25:00,
2013-09-05 16:30:00,61.7,47.2,18.34,South,190,5.0,5.0,59,0.00,,,0.05,Wunderground v.1.15,2013-09-05 20:30:00,
2013-09-05 16:35:00,61.7,47.2,18.34,South,177,5.0,14.0,59,0.00,,,0.05,Wunderground v.1.15,2013-09-05 20:35:00,
2013-09-05 16:40:00,61.1,46.7,18.34,SW,226,5.0,5.0,59,0.00,,,0.05,Wunderground v.1.15,2013-09-05 20:40:00,
2013-09-05 16:45:00,60.9,46.9,18.34,SSW,204,6.0,8.0,60,0.00,,,0.05,Wunderground v.1.15,2013-09-05 20:45:00,
2013-09-05 16:55:00,61.0,47.0,18.34,SW,228,4.0,5.0,60,0.00,,,0.05,Wunderground v.1.15,2013-09-05 20:55:00,
2013-09-05 17:05:00,60.2,47.6,18.34,SSW,195,4.0,7.0,63,0.00,,,0.05,Wunderground v.1.15,2013-09-05 21:05:00,
2013-09-05 17:10:00,60.2,47.1,18.34,SSW,211,3.0,6.0,62,0.00,,,0.05,Wunderground v.1.15,2013-09-05 21:10:00,
2013-09-05 17:15:00,60.0,46.5,18.34,SSW,207,5.0,6.0,61,0.00,,,0.05,Wunderground v.1.15,2013-09-05 21:15:00,
2013-09-05 17:20:00,60.1,47.0,18.34,South,188,5.0,9.0,62,0.00,,,0.05,Wunderground v.1.15,2013-09-05 21:20:00,
2013-09-05 17:30:00,60.0,46.5,18.34,SSW,208,4.0,4.0,61,0.00,,,0.05,Wunderground v.1.15,2013-09-05 21:30:00,
2013-09-05 17:35:00,59.8,47.2,18.34,SW,227,4.0,6.0,63,0.00,,,0.05,Wunderground v.1.15,2013-09-05 21:35:00,
2013-09-05 17:40:00,59.5,46.9,18.34,SSW,205,3.0,3.0,63,0.00,,,0.05,Wunderground v.1.15,2013-09-05 21:40:00,
2013-09-05 17:45:00,59.3,46.7,18.34,SSW,204,4.0,4.0,63,0.00,,,0.05,Wunderground v.1.15,2013-09-05 21:45:00,
2013-09-05 17:50:00,59.2,46.6,18.34,SSW,204,3.0,14.0,63,0.00,,,0.05,Wunderground v.1.15,2013-09-05 21:50:00,
2013-09-05 17:55:00,58.8,46.6,18.34,SSE,161,3.0,14.0,64,0.00,,,0.05,Wunderground v.1.15,2013-09-05 21:55:00,
2013-09-05 18:00:00,58.2,46.1,18.34,SSW,199,3.0,3.0,64,0.00,,,0.05,Wunderground v.1.15,2013-09-05 22:00:00,
2013-09-05 18:10:00,57.8,46.1,18.34,South,178,2.0,7.0,65,0.00,,,0.05,Wunderground v.1.15,2013-09-05 22:10:00,
2013-09-05 18:20:00,58.3,46.6,18.34,SSW,212,2.0,2.0,65,0.00,,,0.05,Wunderground v.1.15,2013-09-05 22:20:00,
2013-09-05 18:25:00,58.4,47.5,18.34,SSW,212,2.0,3.0,67,0.00,,,0.05,Wunderground v.1.15,2013-09-05 22:25:00,
2013-09-05 18:30:00,58.4,47.5,18.34,South,177,2.0,2.0,67,0.00,,,0.05,Wunderground v.1.15,2013-09-05 22:30:00,
2013-09-05 18:40:00,58.1,47.2,18.34,South,178,0.0,1.0,67,0.00,,,0.05,Wunderground v.1.15,2013-09-05 22:40:00,
2013-09-05 18:45:00,57.8,46.9,18.34,South,188,1.0,1.0,67,0.00,,,0.05,Wunderground v.1.15,2013-09-05 22:45:00,
2013-09-05 18:50:00,57.5,47.4,18.34,South,187,2.0,2.0,69,0.00,,,0.05,Wunderground v.1.15,2013-09-05 22:50:00,
2013-09-05 18:55:00,57.1,47.0,18.34,South,183,2.0,3.0,69,0.00,,,0.05,Wunderground v.1.15,2013-09-05 22:55:00,
2013-09-05 19:00:00,56.9,46.8,18.34,South,183,1.0,3.0,69,0.00,,,0.05,Wunderground v.1.15,2013-09-05 23:00:00,
2013-09-05 19:10:00,56.4,47.1,18.34,South,190,1.0,1.0,71,0.00,,,0.05,Wunderground v.1.15,2013-09-05 23:10:00,
2013-09-05 19:15:00,56.0,46.7,18.34,SSW,197,0.0,1.0,71,0.00,,,0.05,Wunderground v.1.15,2013-09-05 23:15:00,
2013-09-05 19:20:00,55.8,46.9,18.34,SSW,199,0.0,0.0,72,0.00,,,0.05,Wunderground v.1.15,2013-09-05 23:20:00,
2013-09-05 19:25:00,55.5,46.2,18.34,SSW,197,0.0,0.0,71,0.00,,,0.05,Wunderground v.1.15,2013-09-05 23:25:00,
2013-09-05 19:35:00,54.9,46.0,18.34,SSW,197,0.0,8.0,72,0.00,,,0.05,Wunderground v.1.15,2013-09-05 23:35:00,
2013-09-05 19:40:00,54.5,45.7,18.34,SSW,202,0.0,8.0,72,0.00,,,0.05,Wunderground v.1.15,2013-09-05 23:40:00,
2013-09-05 19:45:00,54.1,46.0,18.34,SSW,202,0.0,8.0,74,0.00,,,0.05,Wunderground v.1.15,2013-09-05 23:45:00,
2013-09-05 19:50:00,53.6,45.9,18.34,SSW,202,0.0,8.0,75,0.00,,,0.05,Wunderground v.1.15,2013-09-05 23:50:00,
2013-09-05 19:55:00,53.1,45.7,18.34,SSW,202,0.0,8.0,76,0.00,,,0.05,Wunderground v.1.15,2013-09-05 23:55:00,
2013-09-05 20:00:00,52.7,45.7,18.34,SSW,202,0.0,0.0,77,0.00,,,0.05,Wunderground v.1.15,2013-09-06 00:00:00,
2013-09-05 20:10:00,51.8,45.5,18.34,SSW,202,0.0,0.0,79,0.00,,,0.05,Wunderground v.1.15,2013-09-06 00:10:00,
2013-09-05 20:20:00,51.5,45.2,18.34,SSW,202,0.0,0.0,79,0.00,,,0.05,Wunderground v.1.15,2013-09-06 00:20:00,
2013-09-05 20:25:00,51.5,45.2,18.34,SSW,202,0.0,0.0,79,0.00,,,0.05,Wunderground v.1.15,2013-09-06 00:25:00,
2013-09-05 20:30:00,51.4,45.1,18.34,SSW,202,0.0,0.0,79,0.00,,,0.05,Wunderground v.1.15,2013-09-06 00:30:00,
2013-09-05 20:40:00,50.9,44.9,18.34,SSW,202,0.0,5.0,80,0.00,,,0.05,Wunderground v.1.15,2013-09-06 00:40:00,
2013-09-05 20:45:00,50.8,44.9,18.34,SSW,202,0.0,5.0,80,0.00,,,0.05,Wunderground v.1.15,2013-09-06 00:45:00,
2013-09-05 20:50:00,50.9,44.9,18.34,SSW,202,0.0,5.0,80,0.00,,,0.05,Wunderground v.1.15,2013-09-06 00:50:00,
2013-09-05 20:55:00,51.0,45.0,18.34,SSW,202,0.0,5.0,80,0.00,,,0.05,Wunderground v.1.15,2013-09-06 00:55:00,
2013-09-05 21:00:00,50.8,44.9,18.34,SSW,202,0.0,0.0,80,0.00,,,0.05,Wunderground v.1.15,2013-09-06 01:00:00,
2013-09-05 21:10:00,50.0,44.7,18.34,SSW,202,0.0,0.0,82,0.00,,,0.05,Wunderground v.1.15,2013-09-06 01:10:00,
2013-09-05 21:15:00,49.5,44.6,18.34,SSW,202,0.0,0.0,83,0.00,,,0.05,Wunderground v.1.15,2013-09-06 01:15:00,
2013-09-05 21:20:00,49.1,44.5,18.34,SSW,202,0.0,0.0,84,0.00,,,0.05,Wunderground v.1.15,2013-09-06 01:20:00,
2013-09-05 21:25:00,49.0,44.4,18.34,SSW,202,0.0,0.0,84,0.00,,,0.05,Wunderground v.1.15,2013-09-06 01:25:00,
2013-09-05 21:30:00,48.9,44.6,18.34,SSW,202,0.0,0.0,85,0.00,,,0.05,Wunderground v.1.15,2013-09-06 01:30:00,
2013-09-05 21:35:00,48.8,44.5,18.34,SSW,202,0.0,1.0,85,0.00,,,0.05,Wunderground v.1.15,2013-09-06 01:35:00,
2013-09-05 21:45:00,48.6,44.3,18.34,SSW,202,0.0,1.0,85,0.00,,,0.05,Wunderground v.1.15,2013-09-06 01:45:00,
2013-09-05 21:50:00,48.4,44.4,18.34,SSW,202,0.0,1.0,86,0.00,,,0.05,Wunderground v.1.15,2013-09-06 01:50:00,
2013-09-05 21:55:00,48.2,44.2,18.34,SSW,202,0.0,1.0,86,0.00,,,0.05,Wunderground v.1.15,2013-09-06 01:55:00,
2013-09-05 22:00:00,48.0,44.3,18.34,SSW,202,0.0,0.0,87,0.00,,,0.05,Wunderground v.1.15,2013-09-06 02:00:00,
2013-09-05 22:10:00,47.9,44.5,18.34,SSW,202,0.0,0.0,88,0.00,,,0.05,Wunderground v.1.15,2013-09-06 02:10:00,
2013-09-05 22:20:00,47.8,44.4,18.34,SSW,202,0.0,0.0,88,0.00,,,0.05,Wunderground v.1.15,2013-09-06 02:20:00,
2013-09-05 22:25:00,47.6,44.2,18.34,SSW,202,0.0,0.0,88,0.00,,,0.05,Wunderground v.1.15,2013-09-06 02:25:00,
2013-09-05 22:30:00,47.4,44.0,18.34,SSW,202,0.0,0.0,88,0.00,,,0.05,Wunderground v.1.15,2013-09-06 02:30:00,
2013-09-05 22:35:00,47.1,44.0,18.34,SSW,202,0.0,0.0,89,0.00,,,0.05,Wunderground v.1.15,2013-09-06 02:35:00,
2013-09-05 22:40:00,47.0,43.9,18.34,SSW,202,0.0,0.0,89,0.00,,,0.05,Wunderground v.1.15,2013-09-06 02:40:00,
2013-09-05 22:50:00,46.9,44.1,18.34,SSW,202,0.0,0.0,90,0.00,,,0.05,Wunderground v.1.15,2013-09-06 02:50:00,
2013-09-05 22:55:00,47.0,44.2,18.34,SSW,202,0.0,0.0,90,0.00,,,0.05,Wunderground v.1.15,2013-09-06 02:55:00,
2013-09-05 23:00:00,47.1,44.3,18.34,SSW,202,0.0,0.0,90,0.00,,,0.05,Wunderground v.1.15,2013-09-06 03:00:00,
2013-09-05 23:10:00,47.3,44.5,18.34,SSW,202,0.0,0.0,90,0.00,,,0.05,Wunderground v.1.15,2013-09-06 03:10:00,
2013-09-05 23:20:00,47.5,44.7,18.34,SSW,202,0.0,0.0,90,0.00,,,0.05,Wunderground v.1.15,2013-09-06 03:20:00,
2013-09-05 23:25:00,47.8,44.7,18.34,SSW,202,0.0,0.0,89,0.00,,,0.05,Wunderground v.1.15,2013-09-06 03:25:00,
2013-09-05 23:30:00,47.8,44.7,18.34,SSW,202,0.0,0.0,89,0.00,,,0.05,Wunderground v.1.15,2013-09-06 03:30:00,
2013-09-05 23:35:00,47.7,44.3,18.34,SSW,202,0.0,0.0,88,0.00,,,0.05,Wunderground v.1.15,2013-09-06 03:35:00,
2013-09-05 23:40:00,47.5,44.1,18.34,SSW,202,0.0,0.0,88,0.00,,,0.05,Wunderground v.1.15,2013-09-06 03:40:00,
2013-09-05 23:45:00,47.3,43.9,18.34,SSW,202,0.0,0.0,88,0.00,,,0.05,Wunderground v.1.15,2013-09-06 03:45:00,
2013-09-05 23:55:00,46.9,43.8,18.34,SSW,202,0.0,0.0,89,0.00,,,0.05,Wunderground v.1.15,2013-09-06 03:55:00,